Lid_Strength_Index
15 15 15 16 16 16 16 16 16 16 16 16 15 15 15 15 15 15 15 13 14 13
16 16 16 16 16 16 16 17 18 17 18 17 17 17 17 19 18 13 13 13 13 13
16 17 17 17 18 18 17 17 19 20 20 22 22 21 21 20 18 14 14 14 14 14
17 17 18 18 19 19 19 19 20 21 21 21 22 23 22 20 17 15 14 14 14 14
17 17 18 19 20 20 20 22 21 21 20 22 20 18 17 16 15 15 15 15 14 14
18 18 19 20 20 20 19 20 20 19 19 17 16 16 16 15 15 15 15 15 14 14
19 19 19 19 20 20 20 20 19 19 18 16 16 16 16 15 15 15 15 14 14 14
20 20 20 20 20 20 20 20 20 20 17 16 16 16 16 15 15 15 15 15 14 13
21 21 21 21 22 21 20 21 20 19 17 18 17 15 14 14 15 15 15 15 14 14
21 21 21 21 21 21 21 21 21 21 19 18 17 15 14 13 14 15 15 14 14 14
20 20 20 19 20 20 20 20 20 20 20 19 19 15 14 14 14 14 14 14 14 14
19 20 20 20 20 19 19 19 19 17 17 17 16 14 14 14 14 14 14 14 14 14
19 19 19 19 19 19 19 19 18 17 17 16 16 14 13 13 14 14 15 14 14 14
19 19 19 19 19 20 20 19 20 19 19 18 17 17 14 13 14 14 15 15 15 14